Location: Riverside Cemetery
(38.3047°N, 99.7773°W)
Time: 01:17:26
(UTC+00:00)

Cosmos 1025 Rocket - Pass Details

Date: 19 September 2020
Orbit: 595 x 617 km, 82.5° (Epoch: 23 October)

Event Time Altitude Azimuth Distance (km) Brightness Sun altitude
Rises 02:53:05 0° 344° (NNW) 2,884 7.1 -25.9°
Reaches altitude 10° 02:55:24 10° 337° (NNW) 1,978 6.2 -26.3°
Maximum altitude 02:59:29 40° 268° (W) 915 4.3 -27.0°
Enters shadow 03:00:45 32° 229° (SW) 1,064 4.4 -27.2°
